Bloomington, IN

9:14 AM EST on December 07, 2019 (GMT -0500)
Monroe County

Weather History for KBMG - September, 2019

Change the Weather History Date:

Wednesday, September 25, 2019

  Actual Average Record
Temperature  
Mean Temperature 68 °F 62 °F  
Max Temperature 82 °F 74 °F 90 °F (2017)
Min Temperature 54 °F 49 °F 37 °F (1997)
Degree Days  
Heating Degree Days 0 5  
Month to date heating degree days 1 48  
Since 1 July heating degree days 1 55  
Cooling Degree Days 3 2  
Month to date cooling degree days 185 90  
Year to date cooling degree days 1157 907  
Growing Degree Days 18 (Base 50)    
Moisture  
Dew Point 57 °F    
Average Humidity 66    
Maximum Humidity 93    
Minimum Humidity 35    
Precipitation  
Precipitation 0.00 in 0.12 in 2.54 in (2000)
Month to date precipitation 1.20 2.71  
Year to date precipitation 37.42 35.90  
Sea Level Pressure  
Sea Level Pressure 29.85 in    
Wind  
Wind Speed 4 mph ()    
Max Wind Speed 18 mph    
Max Gust Speed 24 mph    
Visibility 10.0 miles    
Events      
T = Trace of Precipitation, MM = Missing Value Source: Averaged Metar Reports

Daily Weather History Graph

Daily Weather History Graph

Search for Another Location

Airport or City:

Astronomy

Sep. 25, 2019 Rise Set
Actual Time 7:36 AM EDT 7:39 PM EDT
Civil Twilight 7:10 AM EDT 8:05 PM EDT
Nautical Twilight 6:38 AM EDT 8:36 PM EDT
Astronomical Twilight 6:07 AM EDT 9:08 PM EDT
Moon 3:32 AM EDT (9/25) 6:08 PM EDT (9/25)
Length of Visible Light 12h 55m
Length of Day
12h 02m
Waning Crescent, 14% of the Moon is Illuminated
Sep 25
Waning Crescent
Sep 28
New
Oct 5
First Quarter
Oct 13
Full
Oct 21
Last Quarter

Hourly Weather History & Observations

Time (EDT) Temp. Heat Index Dew Point Humidity Pressure Visibility Wind Dir Wind Speed Gust Speed Precip Events Conditions
12:53 AM 55.9 °F - 53.1 °F 90% 29.89 in 10.0 mi Calm Calm - N/A   Clear
1:53 AM 57.9 °F - 53.1 °F 84% 29.89 in 10.0 mi Calm Calm - N/A   Clear
2:53 AM 55.0 °F - 52.0 °F 89% 29.89 in 10.0 mi Calm Calm - N/A   Clear
3:53 AM 55.9 °F - 53.1 °F 90% 29.87 in 10.0 mi Calm Calm - N/A   Clear
4:53 AM 57.9 °F - 54.0 °F 87% 29.85 in 10.0 mi Calm Calm - N/A   Overcast
5:53 AM 59.0 °F - 55.0 °F 87% 29.85 in 10.0 mi SSE 6.9 mph - N/A   Overcast
6:53 AM 57.9 °F - 54.0 °F 87% 29.88 in 10.0 mi SSE 3.5 mph - N/A   Overcast
7:53 AM 60.1 °F - 54.0 °F 80% 29.89 in 10.0 mi SE 4.6 mph - N/A   Mostly Cloudy
8:53 AM 62.1 °F - 54.0 °F 75% 29.90 in 10.0 mi SSE 4.6 mph - N/A   Clear
9:53 AM 69.1 °F - 53.1 °F 57% 29.88 in 10.0 mi SSE 6.9 mph - N/A   Partly Cloudy
10:53 AM 73.9 °F - 51.1 °F 45% 29.88 in 10.0 mi South 12.7 mph - N/A   Clear
11:53 AM 75.9 °F - 51.1 °F 42% 29.86 in 10.0 mi South 10.4 mph - N/A   Clear
12:53 PM 80.1 °F - 50.0 °F 35% 29.84 in 10.0 mi SSW 12.7 mph 23.0 mph N/A   Clear
1:53 PM 80.1 °F 79.9 °F 53.1 °F 39% 29.82 in 10.0 mi SSW 12.7 mph - N/A   Scattered Clouds
2:09 PM 81.0 °F 80.4 °F 53.1 °F 38% 29.84 in 10.0 mi SSW 10.4 mph - N/A   Mostly Cloudy
2:24 PM 80.1 °F 80.1 °F 55.0 °F 42% 29.83 in 10.0 mi SW 9.2 mph - N/A   Overcast
2:53 PM 80.1 °F 80.4 °F 57.0 °F 45% 29.81 in 10.0 mi SSW 9.2 mph - N/A   Overcast
3:53 PM 79.0 °F - 59.0 °F 50% 29.81 in 10.0 mi SW 10.4 mph - N/A   Mostly Cloudy
4:53 PM 81.0 °F 81.6 °F 60.1 °F 49% 29.80 in 10.0 mi SW 9.2 mph - N/A   Clear
5:53 PM 80.1 °F 81.1 °F 61.0 °F 52% 29.80 in 10.0 mi SSW 5.8 mph - N/A   Partly Cloudy
6:53 PM 78.1 °F - 63.0 °F 60% 29.79 in 10.0 mi Calm Calm - N/A   Scattered Clouds
7:53 PM 73.9 °F - 64.9 °F 73% 29.81 in 10.0 mi Calm Calm - N/A   Overcast
8:53 PM 73.0 °F - 66.0 °F 79% 29.81 in 10.0 mi Calm Calm - N/A   Overcast
9:53 PM 73.9 °F - 64.9 °F 73% 29.83 in 10.0 mi West 4.6 mph - N/A   Overcast
10:53 PM 73.0 °F - 64.9 °F 76% 29.83 in 10.0 mi Calm Calm - N/A   Overcast
11:53 PM 71.1 °F - 66.0 °F 84% 29.83 in 10.0 mi West 3.5 mph - N/A   Overcast